Location: Musselshell
(46.5176°N, 108.0911°W)
Time: 08:57:08
(UTC+00:00)

YUBILEINY - Pass Details

Date: 06 July 2022
Orbit: 1478 x 1509 km, 82.5° (Epoch: 13 August)

Event Time Altitude Azimuth Distance (km) Brightness Sun altitude
Rises 09:26:52 0° 353° (N) 4,651 ? -14.9°
Reaches altitude 10° 09:30:19 10° 4° (N) 3,662 ? -14.5°
Maximum altitude 09:37:52 31° 64° (ENE) 2,401 ? -13.8°
Drops below altitude 10° 09:45:20 10° 123° (ESE) 3,626 ? -13.1°
Sets 09:48:41 0° 134° (SE) 4,598 ? -12.8°
